When you browse on this site, cookies collect data to enhance your experience and personalize the content and advertising you see.
Visit our Privacy Policy to learn more. By continuing to use the site, you agree to this use of cookies and data.
  • Em Portugal
  • Lista de países
  • Para 7 dias
  • Temperatura da água
  • Mapas de satélite
  • Mapa do tempo
  • Widgets de tempo
  • user-avatar
    Iniciar Sessão

    Previsão horária em Biela

    Hoje, 20 Abril, Sábado

    Tempo Temperatura Precipitação Vento Pressão Humidade
    00:00 +7°C° 0 mm 3 m/s 764 mmHg 58%
    01:00 +7°C° 0 mm 3 m/s 764 mmHg 55%
    02:00 +5°C° 0 mm 3 m/s 764 mmHg 55%
    03:00 +5°C° 0 mm 2 m/s 764 mmHg 54%
    04:00 +4°C° 0 mm 2 m/s 763 mmHg 53%
    05:00 +5°C° 0 mm 2 m/s 763 mmHg 54%
    06:00 +6°C° 0 mm 2 m/s 764 mmHg 55%
    07:00 +7°C° 0 mm 2 m/s 764 mmHg 55%
    08:00 +10°C° 0 mm 3 m/s 763 mmHg 52%
    09:00 +12°C° 0 mm 3 m/s 763 mmHg 49%
    10:00 +14°C° 0 mm 3 m/s 763 mmHg 46%
    11:00 +16°C° 0 mm 3 m/s 763 mmHg 43%
    12:00 +17°C° 0 mm 3 m/s 763 mmHg 41%
    13:00 +19°C° 0 mm 4 m/s 762 mmHg 38%
    14:00 +18°C° 0 mm 4 m/s 762 mmHg 38%
    15:00 +18°C° 0 mm 4 m/s 762 mmHg 37%
    16:00 +18°C° 0 mm 4 m/s 762 mmHg 37%
    17:00 +15°C° 0 mm 4 m/s 761 mmHg 42%
    18:00 +14°C° 0 mm 3 m/s 761 mmHg 48%
    19:00 +12°C° 0 mm 3 m/s 761 mmHg 54%
    20:00 +10°C° 0 mm 3 m/s 761 mmHg 55%
    21:00 +9°C° 0 mm 3 m/s 761 mmHg 57%
    22:00 +8°C° 0 mm 3 m/s 761 mmHg 58%
    23:00 +7°C° 0 mm 3 m/s 761 mmHg 60%

    Amanhã, 21 Abril, Domingo

    Tempo Temperatura Precipitação Vento Pressão Humidade
    00:00 +5°C° 0 mm 3 m/s 761 mmHg 63%
    01:00 +6°C° 0 mm 2 m/s 761 mmHg 65%
    02:00 +5°C° 0 mm 2 m/s 761 mmHg 67%
    03:00 +5°C° 0 mm 2 m/s 761 mmHg 69%
    04:00 +5°C° 0 mm 2 m/s 760 mmHg 70%
    05:00 +6°C° 0 mm 2 m/s 760 mmHg 67%
    06:00 +7°C° 0 mm 2 m/s 760 mmHg 63%
    07:00 +8°C° 0 mm 2 m/s 760 mmHg 60%
    08:00 +10°C° 0 mm 2 m/s 760 mmHg 54%
    09:00 +12°C° 0 mm 3 m/s 760 mmHg 48%
    10:00 +14°C° 0 mm 3 m/s 759 mmHg 41%
    11:00 +16°C° 0 mm 3 m/s 759 mmHg 39%
    12:00 +17°C° 0 mm 3 m/s 758 mmHg 37%
    13:00 +18°C° 0 mm 3 m/s 758 mmHg 35%
    14:00 +18°C° 0 mm 3 m/s 757 mmHg 36%
    15:00 +18°C° 0 mm 3 m/s 757 mmHg 37%
    16:00 +18°C° 0 mm 3 m/s 757 mmHg 38%
    17:00 +17°C° 0 mm 3 m/s 756 mmHg 43%
    18:00 +16°C° 0 mm 3 m/s 756 mmHg 47%
    19:00 +13°C° 0 mm 3 m/s 756 mmHg 52%
    20:00 +12°C° 0 mm 3 m/s 756 mmHg 57%
    21:00 +11°C° 0 mm 4 m/s 756 mmHg 62%
    22:00 +8°C° 0 mm 4 m/s 756 mmHg 66%
    23:00 +7°C° 0 mm 4 m/s 756 mmHg 73%

    Depois de amanhã, 22 Abril, Segunda-feira

    Tempo Temperatura Precipitação Vento Pressão Humidade
    00:00 +7°C° 0 mm 3 m/s 756 mmHg 79%
    01:00 +6°C° 0 mm 2 m/s 756 mmHg 86%
    02:00 +5°C° 0 mm 2 m/s 756 mmHg 88%
    03:00 +5°C° 0 mm 2 m/s 756 mmHg 89%
    04:00 +4°C° 0 mm 2 m/s 755 mmHg 91%
    05:00 +4°C° 0 mm 3 m/s 755 mmHg 84%
    06:00 +7°C° 0 mm 3 m/s 755 mmHg 77%
    07:00 +8°C° 0 mm 3 m/s 756 mmHg 70%
    08:00 +8°C° 0 mm 4 m/s 755 mmHg 65%
    09:00 +11°C° 0 mm 4 m/s 755 mmHg 60%
    10:00 +13°C° 0 mm 5 m/s 755 mmHg 56%
    11:00 +14°C° 0 mm 6 m/s 755 mmHg 54%
    12:00 +15°C° 0 mm 6 m/s 755 mmHg 51%
    13:00 +15°C° 0 mm 7 m/s 755 mmHg 49%
    14:00 +15°C° 0 mm 7 m/s 755 mmHg 50%
    15:00 +15°C° 0 mm 7 m/s 754 mmHg 52%
    16:00 +16°C° 0 mm 7 m/s 754 mmHg 53%
    17:00 +14°C° 0 mm 6 m/s 754 mmHg 58%
    18:00 +13°C° 0 mm 5 m/s 754 mmHg 63%
    19:00 +12°C° 0 mm 5 m/s 754 mmHg 68%
    20:00 +12°C° 0 mm 5 m/s 754 mmHg 68%
    21:00 +10°C° 0 mm 6 m/s 754 mmHg 67%
    22:00 +10°C° 0 mm 6 m/s 755 mmHg 66%
    23:00 +9°C° 0 mm 7 m/s 754 mmHg 64%

    23 Abril, Terça-feira

    Tempo Temperatura Precipitação Vento Pressão Humidade
    00:00 +9°C° 0 mm 7 m/s 754 mmHg 62%
    01:00 +9°C° 0 mm 8 m/s 754 mmHg 59%
    02:00 +7°C° 0 mm 8 m/s 754 mmHg 60%
    03:00 +7°C° 0 mm 8 m/s 753 mmHg 60%
    04:00 +6°C° 0 mm 8 m/s 753 mmHg 60%
    05:00 +7°C° 0 mm 9 m/s 753 mmHg 61%
    06:00 +7°C° 0 mm 9 m/s 752 mmHg 61%
    07:00 +8°C° 0 mm 10 m/s 752 mmHg 61%
    08:00 +9°C° 0 mm 10 m/s 752 mmHg 58%
    09:00 +12°C° 0 mm 10 m/s 752 mmHg 55%
    10:00 +13°C° 0 mm 10 m/s 752 mmHg 53%
    11:00 +14°C° 0 mm 10 m/s 751 mmHg 51%
    12:00 +16°C° 0 mm 10 m/s 751 mmHg 50%
    13:00 +17°C° 0 mm 10 m/s 750 mmHg 49%
    14:00 +16°C° 0 mm 10 m/s 750 mmHg 50%
    15:00 +16°C° 0 mm 9 m/s 750 mmHg 51%
    16:00 +16°C° 0 mm 9 m/s 749 mmHg 52%
    17:00 +16°C° 0 mm 9 m/s 749 mmHg 53%
    18:00 +15°C° 0 mm 9 m/s 749 mmHg 54%
    19:00 +13°C° 0 mm 9 m/s 749 mmHg 55%
    20:00 +12°C° 0.2 mm 9 m/s 749 mmHg 62%
    21:00 +11°C° 0.2 mm 9 m/s 749 mmHg 70%
    22:00 +10°C° 0.2 mm 9 m/s 749 mmHg 77%
    23:00 +10°C° 1.6 mm 9 m/s 748 mmHg 79%

    24 Abril, Quarta-feira

    Tempo Temperatura Precipitação Vento Pressão Humidade
    00:00 +10°C° 1.6 mm 8 m/s 748 mmHg 81%
    01:00 +10°C° 1.6 mm 8 m/s 748 mmHg 83%
    02:00 +9°C° 0.2 mm 7 m/s 748 mmHg 82%
    03:00 +9°C° 0.2 mm 7 m/s 747 mmHg 81%
    04:00 +9°C° 0.2 mm 7 m/s 747 mmHg 81%
    05:00 +10°C° 0 mm 7 m/s 747 mmHg 79%
    06:00 +11°C° 0 mm 8 m/s 747 mmHg 77%
    07:00 +12°C° 0 mm 8 m/s 748 mmHg 74%
    08:00 +15°C° 0 mm 8 m/s 748 mmHg 70%
    09:00 +16°C° 0 mm 8 m/s 748 mmHg 66%
    10:00 +18°C° 0 mm 8 m/s 748 mmHg 62%
    11:00 +18°C° 0 mm 8 m/s 748 mmHg 61%
    12:00 +20°C° 0 mm 8 m/s 748 mmHg 60%
    13:00 +21°C° 0 mm 7 m/s 748 mmHg 59%
    14:00 +21°C° 0 mm 7 m/s 748 mmHg 59%
    15:00 +21°C° 0 mm 7 m/s 748 mmHg 59%
    16:00 +21°C° 0 mm 6 m/s 748 mmHg 59%
    17:00 +20°C° 0 mm 5 m/s 749 mmHg 64%
    18:00 +19°C° 0 mm 4 m/s 749 mmHg 70%
    19:00 +17°C° 0 mm 4 m/s 749 mmHg 75%
    20:00 +17°C° 0 mm 4 m/s 749 mmHg 77%
    21:00 +15°C° 0 mm 4 m/s 750 mmHg 80%
    22:00 +14°C° 0 mm 4 m/s 750 mmHg 82%
    23:00 +14°C° 0 mm 4 m/s 750 mmHg 82%

    25 Abril, Quinta-feira

    Tempo Temperatura Precipitação Vento Pressão Humidade
    00:00 +13°C° 0 mm 4 m/s 750 mmHg 82%
    01:00 +13°C° 0 mm 4 m/s 750 mmHg 83%
    02:00 +13°C° 0 mm 4 m/s 750 mmHg 83%
    03:00 +12°C° 0 mm 4 m/s 750 mmHg 84%
    04:00 +12°C° 0 mm 3 m/s 750 mmHg 84%
    05:00 +13°C° 0 mm 4 m/s 750 mmHg 81%
    06:00 +14°C° 0 mm 5 m/s 750 mmHg 78%
    07:00 +16°C° 0 mm 5 m/s 750 mmHg 75%
    08:00 +17°C° 0 mm 5 m/s 750 mmHg 71%
    09:00 +20°C° 0 mm 5 m/s 750 mmHg 66%
    10:00 +21°C° 0 mm 6 m/s 750 mmHg 61%
    11:00 +22°C° 0 mm 6 m/s 750 mmHg 59%
    12:00 +23°C° 0 mm 5 m/s 749 mmHg 57%
    13:00 +25°C° 0 mm 5 m/s 749 mmHg 55%
    14:00 +25°C° 0 mm 5 m/s 749 mmHg 54%
    15:00 +25°C° 0 mm 5 m/s 749 mmHg 53%
    16:00 +26°C° 0 mm 5 m/s 748 mmHg 53%
    17:00 +23°C° 0 mm 4 m/s 748 mmHg 60%
    18:00 +21°C° 0 mm 4 m/s 748 mmHg 66%
    19:00 +19°C° 0 mm 3 m/s 748 mmHg 73%
    20:00 +19°C° 0 mm 3 m/s 748 mmHg 74%
    21:00 +18°C° 0 mm 3 m/s 748 mmHg 75%
    22:00 +18°C° 0 mm 4 m/s 748 mmHg 75%
    23:00 +17°C° 0 mm 4 m/s 748 mmHg 75%
    Mostrar mais